Location: Arclight Observatory
(36.5667°N, 87.3333°W)
Time: 07:08:43
(UTC-05:00)

Daily predictions for brighter satellites

Satellite Brightness Start Highest point End
(mag) Time Altitude Azimuth Time Altitude Azimuth Time Altitude Azimuth
Cosmos 1812 Rocket 3.8 19:24:09 10° S 19:28:33 81° W 19:32:57 10° N
Cosmos 1833 Rocket 3.9 19:24:33 10° N 19:29:02 24° ENE 19:33:30 10° ESE
ALOS 2.6 19:25:06 10° SE 19:29:32 45° ENE 19:33:59 10° N
Abrixas 3.1 19:30:04 10° NW 19:32:46 37° NNE 19:35:25 10° ESE
Tiangong 1 2.3 19:33:58 10° W 19:36:40 33° SSW 19:39:19 10° SSE
Cosmos 2278 Rocket 2.7 19:31:02 10° SSW 19:36:41 69° WNW 19:42:21 10° NNE
RESURS DK-1 2.7 19:32:40 10° NNW 19:36:48 72° WSW 19:40:53 10° SSE
NOAA 12 4.3 19:31:41 10° SSE 19:37:00 83° WSW 19:42:20 10° NNW
ATLAS 5 CENTAUR R/B 2.2 19:34:52 10° S 19:39:09 40° ESE 19:43:44 10° NE
Cosmos 1125 Rocket 3.6 19:35:53 10° S 19:40:56 56° ESE 19:46:03 10° NNE
SeaSat 1 2.9 19:37:44 10° SE 19:42:23 44° ENE 19:47:03 10° N
Cosmos 1470 4.1 19:41:36 10° SE 19:44:28 19° E 19:47:20 10° NE
GPS 2-05 Rocket1 3.0 19:41:25 10° WSW 19:44:55 63° S 19:48:14 12° E
Cosmos-2242 4.1 19:43:44 10° SE 19:47:07 23° E 19:50:30 10° NE
GP-B 4.1 19:47:11 10° SE 19:50:50 25° E 19:54:28 10° NNE
HJ-1C 3.3 19:49:55 10° SSE 19:53:17 71° ENE 19:56:42 10° N
Cosmos 2297 3.7 19:49:17 10° SSW 19:54:57 75° ESE 20:00:42 10° NNE
SJ-6B 3.1 19:52:29 10° S 19:56:11 66° W 19:59:56 10° NNW
BREEZE-M DEB (TANK) 3.6 19:54:23 10° WSW 19:56:58 52° NNW 20:02:54 10° NE
USA 186 3.0 19:58:05 13° ENE 19:58:05 13° ENE 19:58:53 10° NE
H-2A R/B 2.9 19:54:27 10° SSE 19:58:15 57° ENE 20:02:08 10° N
Resurs 01 Rocket 1.6 19:56:05 10° SSE 20:00:25 60° ENE 20:04:47 10° N
Cosmos 1340 Rocket 4.2 19:58:03 10° NNE 20:01:04 20° ENE 20:02:27 17° ESE
FengYun 1-2 T 4.3 20:02:25 10° SSE 20:08:00 85° WSW 20:13:39 10° NNW
ISS -3.5 20:06:03 10° WSW 20:09:16 65° NW 20:12:31 10° NE
Cosmos 1605 Rocket 4.3 20:03:11 10° SSW 20:09:26 74° W 20:15:48 10° N
Cosmos 2082 Rocket 2.3 20:03:58 10° NNW 20:09:33 57° ENE 20:14:41 12° SE
Cosmos 2100 Rocket 4.2 20:07:25 10° SSE 20:13:27 49° E 20:19:32 10° NNE
Meteor 1-29 3.8 20:12:14 10° NE 20:15:20 30° E 20:16:42 22° SE
SAR-Lupe-4 4.0 20:16:29 24° SE 20:18:12 41° ENE 20:21:36 10° N
CZ-3B DEB 4.4 20:11:38 10° W 20:20:56 31° NW 20:25:52 10° NNE
Cosmos 1271 Rocket 2.7 20:19:37 10° S 20:23:34 64° E 20:27:34 10° NNE
COSMOS 2487 2.3 20:21:01 10° NNW 20:24:36 80° ENE 20:26:44 23° SSE
Cosmos 1758 4.3 20:21:04 10° SSW 20:24:55 49° W 20:28:49 10° N
H-2A R/B 4.0 20:22:21 10° WSW 20:27:40 56° SSE 20:48:00 20° E
H-2A R/B 4.0 20:22:20 10° WSW 20:27:40 56° SSE 20:47:59 20° E
H-2A R/B 4.0 20:22:21 10° WSW 20:27:40 56° SSE 20:47:57 20° E
H-2A R/B 4.0 20:22:21 10° WSW 20:27:40 56° SSE 20:47:54 20° E
H-2A R/B 4.0 20:22:20 10° WSW 20:27:40 56° SSE 20:47:57 20° E
H-2A R/B 4.0 20:22:20 10° WSW 20:27:40 56° SSE 20:47:58 20° E
H-2A R/B 4.0 20:22:21 10° WSW 20:27:41 56° SSE 20:47:56 20° E
H-2A R/B 4.0 20:22:20 10° WSW 20:27:41 56° SSE 20:48:00 20° E
H-2A R/B 4.0 20:22:20 10° WSW 20:27:41 56° SSE 20:47:59 20° E
H-2A R/B 4.0 20:22:21 10° WSW 20:27:41 56° SSE 20:47:59 20° E
H-2A R/B 4.0 20:22:21 10° WSW 20:27:41 56° SSE 20:47:58 20° E
Cosmos 372 Rocket 4.3 20:23:56 10° SSW 20:29:00 68° WNW 20:34:08 10° NNE
Cosmos 1818 3.9 20:24:39 10° NW 20:30:02 64° WSW 20:35:02 12° SSE
Cosmos 1269 Rocket 4.0 20:25:03 10° NNW 20:30:21 87° WSW 20:35:23 11° SSE
Cosmos 1953 3.5 20:27:21 10° SSW 20:31:16 46° W 20:35:11 10° N
Cosmos 1674 2.5 20:29:49 10° N 20:33:37 87° E 20:36:15 19° S
Lacrosse 5 4.5 20:31:31 10° WNW 20:34:38 16° NNW 20:37:44 10° N
Cosmos 158 Rocket 3.9 20:29:50 10° NNW 20:35:02 86° ENE 20:39:05 17° SSE
Resurs 1-3 4.0 20:31:31 10° S 20:35:50 62° WSW 20:40:11 10° NNW
SAR-Lupe-1 4.0 20:36:02 45° SE 20:36:54 64° ENE 20:40:27 10° N
Cosmos 1802 Rocket 3.9 20:31:13 10° S 20:37:13 60° E 20:43:16 10° NNE
USA 215 3.4 20:31:20 10° NE 20:37:35 48° SE 20:43:49 10° SSW
Cosmos 1408 Rocket 3.6 20:34:09 10° N 20:38:38 83° W 20:42:45 12° S
Cosmos 1939 Rocket 3.3 20:42:57 42° ENE 20:42:57 42° ENE 20:46:53 10° N
Helios 1B rocket 2.5 20:41:10 10° N 20:45:19 80° WNW 20:49:24 10° SSW
TIMED 4.4 20:43:22 10° SSW 20:47:43 86° ESE 20:52:07 10° NNE
SJ-11-01 4.3 20:48:14 46° ESE 20:49:18 57° ENE 20:53:56 10° N
Cosmos 1842 Rocket 3.5 20:50:28 55° ESE 20:50:48 57° E 20:55:08 10° NNE
Lacrosse 5 rocket 1.3 20:50:34 10° NW 20:54:09 58° NNE 20:54:09 58° NNE
Cosmos 2061 Rocket 4.0 20:48:05 10° S 20:54:28 89° W 21:00:57 10° N
Cosmos 2369 Rocket 4.2 21:01:47 13° NE 21:01:47 13° NE 21:02:26 10° NE
Cosmos 494 Rocket 4.1 20:53:57 10° N 20:58:54 49° ENE 20:59:02 48° ENE
Cosmos 1459 Rocket 4.1 20:52:55 10° S 20:59:10 75° W 21:05:22 10° N
Timation 2 Rocket 4.2 20:56:40 10° NNW 21:02:51 67° WSW 21:06:20 26° S
Helios 1A 3.7 21:02:56 27° SSW 21:04:53 50° W 21:08:58 10° NNW
Gblst 52 Del rocket 4.1 20:59:17 10° SW 21:05:22 82° SE 21:07:37 38° NE
Cosmos 2173 Rocket 4.3 21:01:22 10° SSW 21:07:29 66° W 21:13:43 10° N
Envisat 3.0 21:08:43 45° S 21:10:20 80° WSW 21:15:26 10° NNW
Cosmos 1833 Rocket 3.6 21:07:48 10° NW 21:13:07 44° WSW 21:16:33 21° SSW
Cosmos 1864 Rocket 4.4 21:11:34 45° SSE 21:13:28 67° E 21:19:44 10° NNE
Meteor 2-17 Rocket 4.5 21:09:28 10° S 21:15:37 79° W 21:21:47 10° N
ERS-1 Rocket 3.1 21:23:15 61° NNE 21:23:15 61° NNE 21:27:33 10° N
ATLAS 5 CENTAUR R/B 4.1 21:20:09 10° W 21:23:58 23° NW 21:28:02 10° N
H-2A R/B 4.1 21:31:01 16° NNE 21:31:01 16° NNE 21:32:33 10° NNE
OAO 2 Rocket 4.2 21:26:44 10° WSW 21:30:18 41° SW 21:30:18 41° SW
CZ-3 Stage 3 3.3 21:11:00 10° W 21:36:39 58° SSW 21:37:49 53° SSE
ISS -0.3 21:45:01 10° NW 21:45:27 11° NW 21:45:27 11° NW
Cosmos 1725 Rocket 4.3 21:47:24 42° SW 21:49:23 62° W 21:55:32 10° N
ARGOS 4.4 21:55:16 33° N 21:55:16 33° N 21:58:12 10° N
USA 215 4.1 22:14:21 10° NE 22:20:31 46° NW 22:26:40 10° WSW
Cosmos 2369 Rocket 4.2 22:43:24 23° NNW 22:43:24 23° NNW 22:46:12 10° N
USA 267 4.5 22:53:31 35° NNW 22:53:31 35° NNW 22:57:20 10° NW
